Weather History for Caslav, Czech Republic

Change the Weather History Date:

Thursday, November 7, 2013

  Actual Average Record
Temperature  
Mean Temperature 53 °F -  
Max Temperature 60 °F - - ()
Min Temperature 46 °F - - ()
Degree Days  
Heating Degree Days 12    
Growing Degree Days 3 (Base 50)    
Moisture  
Dew Point 50 °F    
Average Humidity 87    
Maximum Humidity 100    
Minimum Humidity 72    
Precipitation  
Precipitation 0.00 in - - ()
Sea Level Pressure  
Sea Level Pressure 29.81 in    
Wind  
Wind Speed 8 mph ()    
Max Wind Speed 18 mph    
Max Gust Speed -    
Visibility 6.0 miles    
Events Rain    
T = Trace of Precipitation, MM = Missing Value Source: Averaged Metar Reports

Daily Weather History Graph

Daily Weather History Graph

Search for Another Location

Airport:

Trip Planner

Search our weather history database for the weather conditions in past years. The results will help you decide how hot, cold, wet, or windy it might be!

Date:

Astronomy

Nov. 07, 2013 Rise Set
Actual Time 6:57 AM CET 4:25 PM CET
Civil Twilight 6:23 AM CET 5:00 PM CET
Nautical Twilight 5:44 AM CET 5:38 PM CET
Astronomical Twilight 5:07 AM CET 6:16 PM CET
Moon 10:58 AM CET (11/7) 8:11 PM CET (11/7)
Length of Visible Light 10h 36m
Length of Day
9h 27m
Waxing Crescent, 20% of the Moon is Illuminated
Nov 7
Waxing Crescent
Nov 10
First Quarter
Nov 17
Full
Nov 25
Last Quarter
Dec 3
New

Hourly Weather History & Observations

Time (CET) Temp. Windchill Dew Point Humidity Pressure Visibility Wind Dir Wind Speed Gust Speed Precip Events Conditions
12:00 AM 46.4 °F 42.4 °F 44.6 °F 93% 29.77 in 6.2 mi SSW 8.1 mph - N/A Rain Light Rain
1:00 AM 46.4 °F 42.9 °F 46.4 °F 100% 29.77 in 6.2 mi SSW 6.9 mph - N/A Rain Light Rain
2:00 AM 46.4 °F 43.5 °F 46.4 °F 100% 29.77 in 6.2 mi South 5.8 mph - N/A Rain Light Rain
3:00 AM 46.4 °F 43.5 °F 46.4 °F 100% 29.74 in 4.3 mi SSE 5.8 mph - N/A Rain Light Rain
4:00 AM 46.4 °F 44.3 °F 46.4 °F 100% 29.74 in 6.2 mi SSE 4.6 mph - N/A   Overcast
5:00 AM 51.8 °F - 51.8 °F 100% 29.74 in 6.2 mi SW 9.2 mph - N/A   Overcast
6:00 AM 53.6 °F - 51.8 °F 94% 29.74 in - SW 13.8 mph - N/A   Clear
7:00 AM 53.6 °F - 51.8 °F 94% 29.74 in - SW 13.8 mph - N/A   Clear
8:00 AM 55.4 °F - 51.8 °F 88% 29.74 in - SW 17.3 mph - N/A   Clear
9:00 AM 57.2 °F - 51.8 °F 82% 29.77 in 6.2 mi SW 13.8 mph - N/A   Mostly Cloudy
10:00 AM 57.2 °F - 51.8 °F 82% 29.77 in 6.2 mi SW 11.5 mph - N/A   Mostly Cloudy
11:00 AM 57.2 °F - 51.8 °F 82% 29.80 in 6.2 mi WSW 13.8 mph - N/A   Mostly Cloudy
12:00 PM 59.0 °F - 51.8 °F 77% 29.80 in 6.2 mi West 16.1 mph - N/A   Mostly Cloudy
1:00 PM 59.0 °F - 51.8 °F 77% 29.83 in 6.2 mi West 15.0 mph - N/A   Mostly Cloudy
2:00 PM 60.8 °F - 51.8 °F 72% 29.83 in 6.2 mi West 18.4 mph - N/A   Mostly Cloudy
3:00 PM 60.8 °F - 51.8 °F 72% 29.83 in - West 17.3 mph - N/A   Clear
4:00 PM 59.0 °F - 51.8 °F 77% 29.86 in - West 9.2 mph - N/A   Clear
5:00 PM 57.2 °F - 51.8 °F 82% 29.86 in - SW 3.5 mph - N/A   Clear
6:00 PM 55.4 °F - 50.0 °F 82% 29.89 in - Variable 2.3 mph - N/A   Clear
7:00 PM 55.4 °F - 50.0 °F 82% 29.89 in - South 3.5 mph - N/A   Clear
8:00 PM 53.6 °F - 50.0 °F 88% 29.89 in - SSW 6.9 mph - N/A   Clear
9:00 PM 55.4 °F - 50.0 °F 82% 29.89 in - WSW 5.8 mph - N/A   Clear
10:00 PM 53.6 °F - 48.2 °F 82% 29.89 in - SE 3.5 mph - N/A   Clear
11:00 PM 50.0 °F - 48.2 °F 94% 29.89 in - SSE 6.9 mph - N/A   Clear